Location: Briis
(48.6240°N, 2.1211°E)
Time: 11:21:57
(UTC+00:00)

IDEFIX/ARIANE 42P - Pass Details

Date: 25 September 2020
Orbit: 786 x 802 km, 98.4° (Epoch: 25 October)

Event Time Altitude Azimuth Distance (km) Brightness Sun altitude
Rises 03:53:47 0° 8° (N) 3,327 6.2 -18.5°
Reaches altitude 10° 03:56:14 10° 2° (N) 2,392 5.3 -18.1°
Maximum altitude 04:01:08 41° 294° (WNW) 1,162 3.1 -17.3°
Enters shadow 04:03:11 29° 247° (WSW) 1,453 3.3 -17.0°
